Home > Weather > Wallisellen > Past weeks

Flag for Switzerland Past Weather in Wallisellen, Zurich, Switzerland — Yesterday and Last 2 Weeks

Now
63 °F

Mild.


Feels Like: 63 °F
Forecast: 58 / 71 °F
Wind: 3 mph from Northwest

Location: Zuerich-Fluntern

Current Time: Jul 1, 2016 at 10:07:15 AM

Latest Report: Jul 1, 2016 at 9:00 AM


Visibility: N/A

Pressure: 30.08 "Hg

Humidity: 93%

Dew Point: 61 °F

Location of WallisellenLocation

Past Weather in Wallisellen — Graph

°F

Wallisellen Temperature Yesterday

Maximum temperature yesterday: 72 °F (at 6:00 PM)
Minimum temperature yesterday: 60 °F (at 9:00 AM)
Average temperature yesterday: 65 °F

High & Low Weather Summary for the Past Weeks

 TemperatureHumidityPressure
High90 °F (Jun 23, 6:00 PM)97% (Jun 17, 12:00 AM)30.28 "Hg (Jun 17, 12:00 AM)
Low48 °F (Jun 17, 6:00 AM)38% (Jun 24, 3:00 PM)29.63 "Hg (Jun 16, 8:00 AM)
Average64 °F78%30.06 "Hg
* Reported Jun 16 8:00 AM — Jul 1 8:00 AM, Wallisellen, Weather by CustomWeather, © 2016

Note: Actual official high and low records may vary slightly from our data, if they occured in-between our weather recording intervals... More about our weather records

Advertising

Wallisellen Weather History for the Previous 24 Hours

Scroll right to see more
 ConditionsComfort  
Time TempWeatherWind HumidityBarometerVisibility
8:00 AM
Fri, Jul 1
63 °FScattered clouds.1 mph94%30.07 "HgN/A
7:00 AM61 °FCool.1 mph95%30.07 "HgN/A
6:00 AM60 °FCool.1 mph96%30.07 "HgN/A
5:00 AM61 °FCool.3 mph95%30.07 "HgN/A
4:00 AM61 °FCool.1 mph96%30.07 "HgN/A
3:00 AM62 °FCool.1 mph96%30.07 "HgN/A
2:00 AM62 °FMild.2 mph96%30.07 "HgN/A
1:00 AM63 °FMild.1 mph96%30.07 "HgN/A
12:00 AM63 °FMild.2 mph96%30.06 "HgN/A
11:00 PM
Thu, Jun 30
64 °FMild.2 mph96%30.07 "HgN/A
10:00 PM64 °FMild.3 mph95%30.05 "HgN/A
9:00 PM64 °FMild.3 mph94%30.03 "HgN/A
8:00 PM65 °FOvercast.2 mph94%30.01 "HgN/A
7:00 PM71 °FMild.3 mph66%29.97 "HgN/A
6:00 PM72 °FMild.3 mph63%29.97 "HgN/A
5:00 PM70 °FMild.2 mph69%29.98 "HgN/A
4:00 PM69 °FMild.2 mph67%29.99 "HgN/A
3:00 PM70 °FMild.3 mph67%29.99 "HgN/A
2:00 PM68 °FPartly sunny.1 mph70%30.00 "HgN/A
1:00 PM64 °FMild.2 mph80%30.03 "HgN/A
12:00 PM63 °FMild.1 mph87%30.03 "HgN/A
11:00 AM63 °FMild.2 mph90%30.04 "HgN/A
10:00 AM62 °FCool.1 mph92%30.03 "HgN/A
Weather by CustomWeather, © 2016

See weather overviewHow to use our weather pages